• în România
  • Lista ţărilor
  • Pe 7 zile
  • Temperatura apei
  • Hartă satelitară
  • Meteo pe hartă
  • Widget-uri
  • user-avatar
    Intrare

    Meteo pe oră la San Fernando de Apure

    Astăzi, 16 August, Joi

    Timp Temperatura Precipitaţii Vânt Presiune Umiditate
    00:00 +24°C° 1,3 mm 0 m/s 756 mmHg 89%
    01:00 +23°C° 1,3 mm 0 m/s 756 mmHg 90%
    02:00 +25°C° 0 mm 1 m/s 756 mmHg 93%
    03:00 +25°C° 0,8 mm 1 m/s 756 mmHg 94%
    04:00 +25°C° 0,8 mm 1 m/s 756 mmHg 94%
    05:00 +25°C° 0,8 mm 1 m/s 756 mmHg 95%
    06:00 +25°C° 0,4 mm 1 m/s 756 mmHg 94%
    07:00 +26°C° 0,4 mm 2 m/s 756 mmHg 93%
    08:00 +26°C° 0,4 mm 2 m/s 757 mmHg 92%
    09:00 +28°C° 0,1 mm 2 m/s 757 mmHg 86%
    10:00 +29°C° 0,1 mm 3 m/s 757 mmHg 80%
    11:00 +31°C° 0,1 mm 3 m/s 757 mmHg 75%
    12:00 +33°C° 0 mm 3 m/s 756 mmHg 71%
    13:00 +34°C° 0 mm 3 m/s 756 mmHg 68%
    14:00 +35°C° 0 mm 3 m/s 755 mmHg 64%
    15:00 +35°C° 0 mm 2 m/s 755 mmHg 67%
    16:00 +34°C° 0 mm 2 m/s 754 mmHg 69%
    17:00 +33°C° 0 mm 1 m/s 754 mmHg 72%
    18:00 +32°C° 0,6 mm 1 m/s 754 mmHg 76%
    19:00 +30°C° 0,6 mm 1 m/s 755 mmHg 80%
    20:00 +28°C° 0,6 mm 1 m/s 755 mmHg 84%
    21:00 +28°C° 2 mm 1 m/s 756 mmHg 86%
    22:00 +27°C° 2 mm 1 m/s 756 mmHg 88%
    23:00 +27°C° 2 mm 1 m/s 757 mmHg 90%

    Mâine, 17 August, Vineri

    Timp Temperatura Precipitaţii Vânt Presiune Umiditate
    00:00 +24°C° 0,8 mm 0 m/s 756 mmHg 91%
    01:00 +24°C° 0,8 mm 0 m/s 756 mmHg 92%
    02:00 +24°C° 0,8 mm 0 m/s 756 mmHg 93%
    03:00 +23°C° 0,4 mm 0 m/s 756 mmHg 94%
    04:00 +25°C° 0,4 mm 1 m/s 756 mmHg 94%
    05:00 +25°C° 0,4 mm 1 m/s 756 mmHg 95%
    06:00 +26°C° 0,1 mm 1 m/s 756 mmHg 94%
    07:00 +26°C° 0,1 mm 1 m/s 757 mmHg 92%
    08:00 +27°C° 0,1 mm 2 m/s 757 mmHg 91%
    09:00 +28°C° 0,2 mm 2 m/s 757 mmHg 85%
    10:00 +30°C° 0,2 mm 2 m/s 757 mmHg 79%
    11:00 +31°C° 0,2 mm 2 m/s 757 mmHg 73%
    12:00 +32°C° 0,1 mm 2 m/s 756 mmHg 71%
    13:00 +32°C° 0,1 mm 2 m/s 756 mmHg 68%
    14:00 +33°C° 0,1 mm 1 m/s 755 mmHg 65%
    15:00 +33°C° 1,2 mm 1 m/s 754 mmHg 68%
    16:00 +33°C° 1,2 mm 1 m/s 754 mmHg 71%
    17:00 +30°C° 1,2 mm 0 m/s 754 mmHg 73%
    18:00 +31°C° 1,2 mm 1 m/s 754 mmHg 79%
    19:00 +29°C° 1,2 mm 1 m/s 755 mmHg 84%
    20:00 +27°C° 1,2 mm 1 m/s 755 mmHg 90%
    21:00 +27°C° 0,3 mm 1 m/s 756 mmHg 91%
    22:00 +27°C° 0,3 mm 1 m/s 756 mmHg 91%
    23:00 +26°C° 0,3 mm 1 m/s 757 mmHg 92%

    Poimâine, 18 August, Sâmbătă

    Timp Temperatura Precipitaţii Vânt Presiune Umiditate
    00:00 +26°C° 0,4 mm 1 m/s 756 mmHg 93%
    01:00 +26°C° 0,4 mm 1 m/s 756 mmHg 94%
    02:00 +26°C° 0,4 mm 1 m/s 756 mmHg 95%
    03:00 +26°C° 1,3 mm 1 m/s 755 mmHg 95%
    04:00 +25°C° 1,3 mm 1 m/s 755 mmHg 95%
    05:00 +25°C° 1,3 mm 1 m/s 755 mmHg 94%
    06:00 +26°C° 1 mm 1 m/s 756 mmHg 94%
    07:00 +26°C° 1 mm 1 m/s 756 mmHg 94%
    08:00 +26°C° 1 mm 2 m/s 757 mmHg 94%
    09:00 +27°C° 1,3 mm 2 m/s 757 mmHg 92%
    10:00 +28°C° 1,3 mm 2 m/s 757 mmHg 90%
    11:00 +28°C° 1,3 mm 2 m/s 757 mmHg 88%
    12:00 +29°C° 0,8 mm 2 m/s 757 mmHg 86%
    13:00 +29°C° 0,8 mm 2 m/s 756 mmHg 84%
    14:00 +29°C° 0,8 mm 2 m/s 755 mmHg 82%
    15:00 +29°C° 0,1 mm 2 m/s 755 mmHg 83%
    16:00 +29°C° 0,1 mm 2 m/s 754 mmHg 84%
    17:00 +29°C° 0,1 mm 1 m/s 754 mmHg 84%
    18:00 +28°C° 0 mm 1 m/s 754 mmHg 87%
    19:00 +27°C° 0 mm 1 m/s 755 mmHg 89%
    20:00 +26°C° 0 mm 1 m/s 755 mmHg 92%
    21:00 +24°C° 0 mm 0 m/s 755 mmHg 92%
    22:00 +24°C° 0 mm 0 m/s 756 mmHg 93%
    23:00 +24°C° 0 mm 0 m/s 756 mmHg 93%

    19 August, Duminică

    Timp Temperatura Precipitaţii Vânt Presiune Umiditate
    00:00 +23°C° 0 mm 0 m/s 756 mmHg 94%
    01:00 +23°C° 0 mm 0 m/s 755 mmHg 94%
    02:00 +23°C° 0 mm 0 m/s 755 mmHg 95%
    03:00 +23°C° 0 mm 0 m/s 755 mmHg 95%
    04:00 +23°C° 0 mm 0 m/s 755 mmHg 95%
    05:00 +22°C° 0 mm 0 m/s 755 mmHg 95%
    06:00 +23°C° 0,2 mm 0 m/s 755 mmHg 94%
    07:00 +23°C° 0,2 mm 0 m/s 756 mmHg 93%
    08:00 +24°C° 0,2 mm 0 m/s 756 mmHg 92%
    09:00 +26°C° 0,6 mm 0 m/s 757 mmHg 88%
    10:00 +27°C° 0,6 mm 0 m/s 757 mmHg 83%
    11:00 +29°C° 0,6 mm 0 m/s 757 mmHg 78%
    12:00 +30°C° 0,4 mm 0 m/s 756 mmHg 73%
    13:00 +31°C° 0,4 mm 0 m/s 755 mmHg 68%
    14:00 +32°C° 0,4 mm 0 m/s 755 mmHg 63%
    15:00 +31°C° 0 mm 0 m/s 754 mmHg 66%
    16:00 +33°C° 0 mm 1 m/s 754 mmHg 69%
    17:00 +32°C° 0 mm 1 m/s 753 mmHg 72%
    18:00 +31°C° 0,4 mm 1 m/s 754 mmHg 76%
    19:00 +29°C° 0,4 mm 1 m/s 754 mmHg 80%
    20:00 +26°C° 0,4 mm 0 m/s 755 mmHg 84%
    21:00 +25°C° 0,3 mm 0 m/s 755 mmHg 86%
    22:00 +25°C° 0,3 mm 0 m/s 756 mmHg 87%
    23:00 +24°C° 0,3 mm 0 m/s 756 mmHg 89%

    20 August, Luni

    Timp Temperatura Precipitaţii Vânt Presiune Umiditate
    00:00 +24°C° 0,5 mm 0 m/s 756 mmHg 91%
    01:00 +24°C° 0,5 mm 0 m/s 756 mmHg 92%
    02:00 +25°C° 0,5 mm 1 m/s 755 mmHg 93%
    03:00 +25°C° 1 mm 1 m/s 755 mmHg 94%
    04:00 +25°C° 1 mm 1 m/s 755 mmHg 95%
    05:00 +25°C° 1 mm 1 m/s 755 mmHg 96%
    06:00 +26°C° 0 mm 1 m/s 756 mmHg 95%
    07:00 +26°C° 0 mm 1 m/s 757 mmHg 94%
    08:00 +27°C° 0 mm 1 m/s 757 mmHg 92%
    09:00 +28°C° 0,4 mm 2 m/s 757 mmHg 86%
    10:00 +30°C° 0,4 mm 2 m/s 757 mmHg 80%
    11:00 +31°C° 0,4 mm 3 m/s 757 mmHg 74%
    12:00 +32°C° 0,2 mm 2 m/s 756 mmHg 71%
    13:00 +34°C° 0,2 mm 2 m/s 755 mmHg 67%
    14:00 +35°C° 0,2 mm 2 m/s 754 mmHg 63%
    15:00 +35°C° 0,3 mm 2 m/s 754 mmHg 66%
    16:00 +33°C° 0,3 mm 1 m/s 754 mmHg 69%
    17:00 +33°C° 0,3 mm 1 m/s 753 mmHg 72%
    18:00 +31°C° 0,8 mm 1 m/s 754 mmHg 76%
    19:00 +30°C° 0,8 mm 1 m/s 755 mmHg 81%
    20:00 +28°C° 0,8 mm 1 m/s 755 mmHg 85%
    21:00 +28°C° 0,7 mm 1 m/s 755 mmHg 86%
    22:00 +25°C° 0,7 mm 0 m/s 756 mmHg 88%
    23:00 +25°C° 0,7 mm 0 m/s 756 mmHg 90%

    21 August, Marţi

    Timp Temperatura Precipitaţii Vânt Presiune Umiditate
    00:00 +24°C° 1,2 mm 0 m/s 756 mmHg 91%
    01:00 +24°C° 1,2 mm 0 m/s 755 mmHg 93%
    02:00 +24°C° 1,2 mm 0 m/s 755 mmHg 94%
    03:00 +25°C° 0,5 mm 1 m/s 755 mmHg 95%
    04:00 +25°C° 0,5 mm 1 m/s 755 mmHg 95%
    05:00 +25°C° 0,5 mm 1 m/s 755 mmHg 95%
    06:00 +26°C° 0,1 mm 1 m/s 756 mmHg 94%
    07:00 +26°C° 0,1 mm 1 m/s 756 mmHg 93%
    08:00 +27°C° 0,1 mm 2 m/s 757 mmHg 91%
    09:00 +28°C° 0,8 mm 2 m/s 757 mmHg 87%
    10:00 +30°C° 0,8 mm 2 m/s 757 mmHg 83%
    11:00 +31°C° 0,8 mm 2 m/s 757 mmHg 79%
    12:00 +32°C° 1,2 mm 2 m/s 756 mmHg 76%
    13:00 +32°C° 1,2 mm 2 m/s 755 mmHg 72%
    14:00 +33°C° 1,2 mm 1 m/s 754 mmHg 69%
    15:00 +32°C° 0,9 mm 1 m/s 754 mmHg 73%
    16:00 +32°C° 0,9 mm 1 m/s 753 mmHg 77%
    17:00 +32°C° 0,9 mm 1 m/s 753 mmHg 81%
    18:00 +30°C° 0,8 mm 1 m/s 754 mmHg 83%
    19:00 +27°C° 0,8 mm 0 m/s 754 mmHg 86%
    20:00 +26°C° 0,8 mm 0 m/s 755 mmHg 88%
    21:00 +25°C° 0,4 mm 0 m/s 755 mmHg 89%
    22:00 +25°C° 0,4 mm 0 m/s 756 mmHg 90%
    23:00 +25°C° 0,4 mm 0 m/s 756 mmHg 91%
    Arată mai mult